Regional Weather Roundup
Issued by NWS Jackson, KY

Home | Current Version | Previous Version | Graphics & Text | Print | Product List | Glossary On
Versions: 1 2 3 4 5 6 7 8 9 10 11 12 13 14 15 16 17 18 19 20 21 22 23 24 25 26 27 28 29 30 31 32 33 34 35 36 37 38 39 40 41 42 43 44 45 46 47 48 49 50
152
ASUS43 KJKL 280110
RWRJKL

EAST KENTUCKY HOURLY WEATHER ROUNDUP
NATIONAL WEATHER SERVICE JACKSON KY
900 PM EDT THU JUL 27 2017

NOTE: "FAIR" INDICATES FEW OR NO CLOUDS BELOW 12,000 FEET WITH
NO SIGNIFICANT WEATHER AND/OR OBSTRUCTIONS TO VISIBILITY.

* THESE REPORTS ARE NOT UNDER NWS QUALITY CONTROL AND MAY NOT
  REPORT WEATHER SUCH AS PRECIPITATION AND FOG.

KYZ079-080-083-085-087-088-110-112-115-119-120-280200
...EASTERN KENTUCKY...

CITY           SKY/WX    TMP DP  RH WIND       PRES   REMARKS
JACKSON        LGT RAIN  70  69  97 CALM      29.95S
LONDON         CLOUDY    71  69  93 W6        29.97R
SOMERSET*      LGT RAIN  70  70 100 W5        29.96S
MONTICELLO*    LGT RAIN  74  72  93 N10       29.97R
WILLIAMSBURG*  CLOUDY    73  72  94 CALM      29.95F
MIDDLESBORO*   CLOUDY    76  73  88 E8        29.97S
HARLAN APT*    CLOUDY    72  66  83 CALM      30.01R
PIKE CO APT*   CLOUDY    69  69 100 S3        29.96F
BIG SANDY APT* CLOUDY    71  71 100 S6        29.94F
MOREHEAD APT*  CLOUDY    73  70  88 S6        29.93S
ASHLAND*       CLOUDY    73  73 100 S3        29.88
$$

KYZ035-036-041-042-044-050-067-078-099-280200
...CENTRAL KENTUCKY...

CITY           SKY/WX    TMP DP  RH WIND       PRES   REMARKS
MT STERLING*   CLOUDY    72  70  94 SW7       29.93S
FLEMING/MASON* CLOUDY    74  72  93 S7        29.90F
DANVILLE*      CLOUDY    70  70 100 S5        29.94F
LEXINGTON      LGT RAIN  75  69  81 SW14G28   29.93R
FRANKFORT      CLOUDY    78  72  81 S13G20    29.89R
LOUISVILLE     CLOUDY    83  76  79 SW9       29.87R HX  91
LEBANON*         N/A     73  72  94 S8        29.93R
GLASGOW*       HVY RAIN  73  73 100 N6        29.93S
BOWLING GREEN  MOCLDY    76  74  93 SE6       29.91F
$$

KYZ091>093-OHZ055-061-077-WVZ005-015-034-035-042-280200
...SOUTHERN OHIO/WEST VIRGINIA...

CITY           SKY/WX    TMP DP  RH WIND       PRES   REMARKS
COVINGTON      RAIN      74  74 100 NW12      29.89R FOG
COLUMBUS       CLOUDY    72  71  97 E6        29.87F
DAYTON         CLOUDY    77  72  84 W5        29.89S
WILMINGTON     CLOUDY    75  74  96 W8        29.88S
HUNTINGTON     LGT RAIN  72  70  93 VRB6      29.90F
CHARLESTON     LGT RAIN  72  69  90 S5        29.92F
PINEVILLE*     CLOUDY    70  69  96 MISG      30.03F
BECKLEY        CLOUDY    68  66  93 SW5       30.01F
BLUEFIELD      CLOUDY    66  64  93 W6        30.06S
LOGAN CO APT*  MOCLDY    70  70 100 CALM      29.97R
$$

VAZ002-007-008-TNZ017-027-036-066-071-280200
...SOUTHWEST VIRGINIA/EAST TENNESSEE...

CITY           SKY/WX    TMP DP  RH WIND       PRES   REMARKS
WISE*          RAIN      70  70 100 CALM      30.07S
JONESVILLE*    CLOUDY    73  72  94 CALM      30.00F
ABINGDON*      MOCLDY    73  70  88 CALM      30.03F
BRISTOL        CLOUDY    72  71  97 CALM      30.00F
MORRISTOWN*    MOCLDY    79  68  69 CALM      29.97S
SEVIERVILLE*   CLEAR     77  68  73 CALM      29.96S
KNOXVILLE      LGT RAIN  77  72  84 NE3       29.95S
LAFOLLETTE*    CLEAR     77  73  88 CALM      30.00S
OAK RIDGE      CLOUDY    79  71  76 CALM      29.96F
CROSSVILLE     MOCLDY    77  70  79 CALM      30.01S
NASHVILLE      CLOUDY    86  71  60 W5        29.92R HX  91
$$

...KEY TO REMARKS...
VSB - VISIBILITY IN MILES
WCI - WIND CHILL INDEX
HX  - HEAT INDEX

$$




USA.gov is the U.S. government's official web portal to all federal, state and local government web resources and services.